Location: Casone le Fosse
(44.6547°N, 12.1103°E)
Time: 04:17:11
(UTC+00:00)

Cosmos 2151 - Pass Details

Date: 29 October 2020
Orbit: 580 x 601 km, 82.5° (Epoch: 01 December)

Event Time Altitude Azimuth Distance (km) Brightness Sun altitude
Rises 17:33:04 0° 2° (N) 2,818 6.4 -16.3°
Reaches altitude 10° 17:35:33 10° 15° (NNE) 1,910 5.4 -16.8°
Enters shadow 17:37:27 21° 36° (NE) 1,353 4.4 -17.1°
